Wetbulb
77.18 78.10 77.03 75.71 75.01 75.89 72.62 74.21 72.05 67.36 67.25 68.45 69.49 75.28 75.89 75.87 76.31 77.26 76.57 75.31 71.74 72.47 72.78 71.47 70.73 70.79 71.05 71.18 71.20 71.07 70.59 71.14 69.68 68.05 67.13 67.02 67.40 68.33
76.32 75.85 77.97 76.51 75.56 74.45 74.02 73.96 74.35 72.16 69.33 72.39 72.37 74.34 76.83 75.92 76.46 76.37 77.60 73.50 72.59 71.84 73.59 73.15 71.04 70.68 70.46 70.35 70.61 70.12 69.86 70.30 69.15 67.15 66.37 66.07 66.42 67.32
77.47 76.94 76.64 77.31 75.78 74.91 74.30 73.64 72.16 72.61 70.09 71.07 72.25 73.38 74.15 75.02 76.97 77.56 78.41 76.16 75.42 71.43 72.96 72.68 70.86 70.60 70.00 69.21 69.27 69.51 69.12 69.04 68.36 66.18 65.44 65.27 65.61 66.50
76.58 76.84 76.45 75.23 76.36 76.84 75.94 75.44 75.07 74.30 73.97 71.53 74.36 73.94 74.36 75.14 78.02 77.77 77.24 76.18 75.50 72.53 72.14 70.82 71.28 69.29 68.39 67.52 67.72 68.82 67.58 67.28 67.02 65.48 63.92 64.06 64.48 65.70
76.16 75.53 73.72 75.38 75.83 76.25 76.71 76.04 74.98 75.17 74.13 73.60 72.65 73.63 73.49 74.39 73.64 76.03 74.46 76.53 74.99 73.25 71.28 70.42 69.87 68.59 67.40 66.18 67.26 68.61 66.25 65.10 64.66 64.30 63.05 62.48 63.04 64.15
77.20 76.66 76.92 75.68 74.65 77.02 75.26 75.34 75.31 74.27 73.56 73.21 70.65 70.70 72.89 73.95 74.42 72.86 72.32 74.78 74.18 76.22 75.19 73.21 71.47 71.06 70.11 68.09 68.65 69.52 65.50 63.78 62.23 61.64 61.18 61.10 61.63 62.18
76.54 75.11 76.06 73.24 71.43 71.91 74.13 75.67 76.21 75.06 74.31 72.28 71.71 71.80 72.39 72.60 72.18 73.98 73.01 73.87 74.65 75.52 75.12 75.11 75.40 76.08 75.54 67.80 70.58 70.12 67.55 64.12 61.42 60.73 59.61 59.43 60.55 60.81
74.52 75.48 72.69 70.29 71.53 69.36 69.07 69.33 70.41 74.06 73.51 72.97 71.83 71.23 72.21 73.38 73.74 73.70 73.36 72.57 70.78 75.66 74.35 73.80 75.53 74.70 75.30 74.32 70.73 69.57 66.10 64.23 62.02 60.77 59.47 58.34 58.85 61.17
73.99 73.89 72.76 67.41 64.50 67.70 68.48 69.19 69.19 66.82 67.48 72.51 72.69 72.60 72.40 72.91 74.35 72.55 71.72 72.62 72.26 73.70 73.99 72.23 75.17 74.18 75.69 75.65 68.24 66.29 66.06 63.77 62.03 60.76 59.55 58.48 57.88 58.08
71.09 72.85 67.87 63.61 59.66 60.75 66.44 71.49 71.87 73.32 74.28 72.01 73.13 71.91 71.37 72.04 72.26 72.25 72.71 73.13 73.37 73.46 73.80 70.81 73.53 71.81 73.49 74.36 68.67 67.19 66.21 63.31 61.62 60.16 58.54 57.09 55.76 54.66
63.92 63.57 64.18 61.82 56.45 56.80 68.02 67.28 67.55 67.63 64.58 63.57 64.23 63.31 62.73 62.55 64.17 69.34 71.48 70.40 69.55 70.07 72.35 68.15 70.40 70.14 71.89 72.83 73.99 68.82 64.75 62.35 60.06 59.36 58.75 56.79 54.34 53.21
62.25 58.98 56.48 56.68 54.48 54.35 62.29 64.63 61.79 62.10 62.13 64.31 67.31 70.26 68.88 68.75 65.83 71.72 70.06 65.96 66.18 65.63 68.75 64.77 67.03 67.94 67.58 73.37 71.63 72.87 73.32 67.30 62.29 58.78 58.26 56.01 53.26 60.13
61.87 61.88 58.38 53.63 51.82 51.65 53.14 63.30 60.76 58.10 61.34 63.71 67.08 69.18 67.69 66.38 66.20 66.27 68.01 68.15 64.01 62.40 64.81 66.16 66.43 66.86 66.85 66.91 69.88 70.78 67.66 66.88 67.62 70.71 59.86 53.87 52.12 56.67
53.70 53.31 55.03 50.73 49.58 50.49 54.32 54.46 54.10 56.60 64.65 63.13 61.73 61.35 61.22 62.01 63.42 65.21 68.20 68.80 67.60 67.11 67.44 70.28 65.16 63.86 63.05 61.77 61.38 63.67 63.79 63.94 66.15 69.69 74.04 59.50 52.39 52.43
55.11 53.31 52.37 50.88 50.89 55.42 55.67 55.52 56.72 60.46 60.50 60.52 60.14 59.70 61.55 62.96 63.48 61.45 61.70 61.76 60.84 62.47 63.40 66.28 62.30 58.91 60.05 59.41 58.95 59.82 59.19 61.93 66.28 66.35 71.17 71.01 72.27 72.05
54.49 57.86 56.25 55.87 54.30 55.79 57.26 57.33 56.96 56.73 55.76 54.83 55.83 57.22 57.53 57.04 56.59 57.04 55.76 56.56 57.11 58.04 61.27 60.89 57.55 55.42 54.06 54.58 55.71 56.03 58.86 59.22 62.88 62.87 58.82 60.02 59.73 60.42
45.82 56.76 58.21 57.16 55.57 55.93 55.30 55.22 54.24 53.56 52.33 53.23 53.20 53.46 54.32 55.04 54.95 55.53 55.38 54.29 53.15 52.76 53.10 54.56 55.10 54.66 54.94 55.41 54.12 56.29 54.85 55.34 56.64 55.57 54.38 53.73 55.34 59.32
52.40 52.75 52.64 52.45 51.95 52.43 52.28 52.06 52.60 52.42 52.80 51.64 50.93 50.79 50.49 50.37 50.19 51.52 52.12 51.08 50.69 51.04 50.33 50.83 50.70 50.66 51.37 52.48 56.52 49.87 50.11 49.20 50.44 52.29 54.00 54.41 56.35 59.77
53.66 53.95 53.43 51.84 51.92 51.80 51.37 51.22 50.39 52.00 51.23 49.58 50.29 50.49 50.31 49.06 48.51 48.76 48.45 48.18 47.47 47.19 47.63 48.66 48.31 47.87 45.26 43.06 47.97 52.23 48.20 48.70 49.99 51.80 53.64 52.15 52.45 55.46
51.98 51.20 51.27 51.86 50.93 50.67 49.77 49.24 48.92 49.10 48.76 48.69 48.25 48.16 47.98 46.82 45.92 45.53 45.86 45.48 45.32 45.44 46.20 47.54 46.95 46.89 43.97 42.78 43.66 46.68 49.11 48.88 48.31 47.52 48.39 48.24 49.81 52.87
51.57 50.32 51.12 50.28 49.66 49.75 49.69 49.38 49.65 48.02 48.11 47.50 46.71 46.40 46.12 45.27 44.23 44.36 44.01 43.52 43.61 43.51 42.62 43.58 45.83 49.60 47.86 47.59 44.04 44.32 46.88 48.64 48.55 46.25 45.73 45.65 46.18 47.64
50.93 50.33 50.37 50.19 50.02 49.78 49.19 49.14 48.48 47.82 46.75 45.89 45.35 44.86 44.25 43.84 42.52 42.15 42.29 41.44 41.67 41.84 41.92 43.34 44.59 44.95 43.26 41.88 41.06 42.20 43.74 46.62 48.69 49.73 50.36 49.77 46.01 42.48
50.47 49.82 50.81 50.81 50.05 49.09 48.11 47.10 46.24 45.86 45.57 44.63 43.66 43.10 42.59 41.24 41.68 41.55 41.52 41.63 41.49 40.87 41.19 40.93 42.05 42.67 41.56 41.87 41.84 41.55 42.03 43.36 44.91 44.17 45.95 49.73 50.15 50.09
MSLP
1019.50 1019.44 1019.39 1019.50 1019.73 1019.43 1019.30 1019.19 1019.19 1019.80 1021.03 1021.16 1021.11 1018.19 1017.55 1017.51 1017.56 1017.28 1016.97 1016.57 1016.46 1016.17 1016.06 1015.93 1016.02 1015.75 1015.30 1015.08 1015.00 1014.93 1014.90 1014.64 1014.47 1014.48 1014.32 1014.12 1014.03 1013.81
1019.54 1019.89 1019.77 1019.75 1019.93 1019.80 1019.46 1019.42 1018.98 1019.18 1019.60 1019.32 1019.07 1018.22 1017.72 1017.49 1017.26 1016.97 1016.78 1016.26 1015.82 1015.72 1015.69 1015.51 1015.63 1015.35 1014.99 1014.85 1014.86 1014.66 1014.80 1014.56 1014.47 1014.49 1014.42 1014.21 1014.15 1013.94
1019.60 1019.70 1019.84 1020.01 1020.06 1019.97 1019.77 1019.65 1019.56 1019.43 1019.62 1019.16 1018.70 1018.30 1018.01 1017.69 1017.16 1016.78 1016.52 1016.09 1015.57 1015.54 1015.32 1015.10 1015.30 1014.97 1014.53 1014.52 1014.60 1014.40 1014.38 1014.44 1014.35 1014.46 1014.46 1014.42 1014.26 1014.14
1019.31 1019.37 1019.48 1019.56 1019.82 1020.07 1020.26 1020.19 1019.72 1019.60 1019.84 1019.79 1019.36 1018.77 1018.10 1017.43 1016.94 1016.79 1016.33 1015.90 1015.46 1015.38 1015.08 1014.83 1015.18 1014.56 1014.19 1014.04 1014.19 1014.25 1014.18 1014.35 1014.23 1014.32 1014.46 1014.48 1014.45 1014.33
1018.86 1019.10 1019.15 1019.22 1019.48 1019.65 1019.77 1019.78 1019.70 1019.67 1019.68 1019.63 1019.34 1018.78 1018.10 1017.73 1017.27 1017.03 1016.49 1016.00 1015.56 1015.21 1014.95 1014.62 1014.60 1014.31 1013.77 1013.64 1013.95 1014.16 1014.09 1013.87 1014.08 1013.96 1014.41 1014.53 1014.52 1014.41
1018.44 1018.55 1018.89 1019.22 1019.50 1019.77 1020.00 1020.18 1020.24 1020.22 1019.98 1019.85 1019.56 1019.16 1018.41 1018.13 1017.80 1017.60 1017.29 1016.95 1016.68 1015.91 1015.43 1014.96 1014.47 1013.92 1013.25 1013.08 1013.46 1013.56 1013.69 1013.78 1013.86 1013.90 1013.96 1014.25 1014.28 1014.31
1019.29 1018.94 1019.06 1019.51 1019.83 1020.15 1020.46 1020.44 1020.55 1020.55 1020.48 1020.20 1019.79 1019.22 1018.83 1018.56 1018.62 1018.52 1018.31 1017.79 1017.20 1016.70 1016.14 1015.29 1014.90 1014.10 1013.32 1013.46 1013.07 1013.14 1013.48 1013.65 1013.62 1013.46 1013.44 1013.56 1013.72 1013.84
1019.35 1019.80 1019.51 1020.19 1020.53 1020.38 1020.50 1020.51 1021.00 1021.00 1020.86 1020.71 1020.34 1020.02 1019.66 1019.58 1019.27 1019.28 1018.90 1018.45 1017.72 1016.76 1016.55 1015.84 1015.01 1014.53 1013.90 1013.58 1013.56 1013.48 1013.40 1013.56 1013.48 1013.23 1013.18 1013.44 1013.71 1013.82
1020.38 1020.01 1019.96 1020.83 1021.18 1021.30 1020.90 1020.47 1020.42 1020.50 1020.98 1021.01 1020.61 1020.30 1020.12 1019.78 1019.60 1019.27 1019.12 1018.84 1018.35 1017.30 1016.96 1016.16 1015.23 1014.74 1014.12 1013.85 1013.97 1013.89 1013.93 1013.60 1013.42 1013.20 1013.30 1013.15 1013.29 1013.60
1020.25 1020.30 1020.98 1022.00 1022.32 1022.04 1021.64 1021.09 1020.80 1020.51 1020.49 1020.62 1020.50 1020.19 1019.80 1019.44 1019.53 1019.46 1019.16 1018.87 1018.27 1017.63 1017.17 1016.62 1015.73 1015.40 1014.72 1014.06 1013.90 1013.70 1013.85 1013.75 1013.37 1013.18 1013.08 1013.04 1013.07 1013.18
1021.50 1021.68 1022.03 1022.70 1023.10 1022.87 1022.28 1021.90 1021.51 1021.04 1020.50 1020.36 1020.06 1019.94 1019.63 1019.72 1019.64 1019.69 1019.36 1019.01 1018.57 1017.93 1017.74 1017.51 1016.85 1016.09 1015.33 1014.55 1014.07 1013.72 1013.50 1013.27 1013.24 1013.10 1012.96 1012.90 1013.06 1013.19
1022.29 1022.72 1023.19 1023.32 1023.58 1023.56 1023.23 1022.87 1022.52 1021.97 1021.49 1020.68 1019.84 1019.62 1019.17 1019.50 1019.76 1019.53 1019.58 1019.45 1019.00 1018.45 1018.14 1018.29 1017.49 1016.97 1015.86 1014.87 1014.64 1014.02 1013.48 1013.16 1012.87 1012.64 1012.72 1013.08 1013.29 1013.27
1022.82 1023.22 1023.39 1023.51 1023.66 1023.85 1023.68 1023.36 1023.06 1022.77 1021.66 1021.05 1020.29 1019.78 1019.58 1019.63 1019.86 1019.90 1019.66 1019.51 1019.37 1019.30 1018.66 1018.53 1018.07 1017.52 1017.05 1016.23 1015.36 1014.68 1014.46 1013.95 1013.31 1012.60 1012.34 1012.63 1012.91 1013.24
1023.51 1023.56 1023.49 1023.84 1023.48 1023.75 1023.57 1023.17 1022.91 1022.51 1021.86 1021.34 1021.09 1021.07 1020.83 1020.63 1020.53 1020.20 1019.96 1019.74 1019.58 1019.52 1018.75 1018.24 1018.17 1017.89 1017.45 1016.93 1016.39 1015.72 1015.18 1014.50 1013.64 1012.98 1012.33 1012.60 1012.64 1012.71
1023.74 1023.81 1023.49 1023.82 1023.70 1023.42 1023.55 1022.89 1022.56 1022.71 1022.52 1022.29 1022.29 1022.10 1021.66 1021.25 1020.92 1020.90 1020.71 1020.42 1020.11 1019.66 1019.31 1019.07 1019.29 1019.10 1018.45 1017.93 1017.26 1016.68 1015.80 1014.69 1013.55 1013.42 1013.12 1012.92 1012.69 1011.99
1024.10 1023.35 1023.49 1023.54 1023.74 1023.93 1023.57 1023.41 1023.79 1023.68 1023.77 1023.78 1023.51 1023.17 1022.61 1022.24 1022.07 1021.97 1021.68 1021.34 1020.72 1020.21 1019.84 1019.72 1019.94 1019.98 1019.48 1018.80 1018.04 1017.06 1016.37 1015.90 1014.76 1014.40 1014.21 1013.41 1012.80 1012.30
1025.15 1024.18 1024.00 1024.15 1024.24 1024.40 1024.40 1024.43 1024.57 1024.74 1024.80 1024.57 1024.46 1024.14 1023.78 1023.38 1023.19 1023.02 1022.67 1022.14 1021.82 1021.40 1020.90 1020.56 1020.56 1020.28 1019.79 1019.10 1018.24 1017.60 1017.35 1016.89 1016.48 1015.91 1015.07 1013.88 1012.92 1012.26
1025.08 1024.81 1024.96 1025.06 1025.09 1025.19 1025.31 1025.27 1025.28 1025.55 1025.51 1025.56 1025.33 1025.10 1024.90 1024.62 1024.29 1023.83 1023.58 1023.56 1022.97 1022.61 1022.22 1021.83 1021.11 1020.22 1019.40 1019.00 1018.61 1018.54 1018.13 1017.88 1017.02 1016.33 1015.72 1014.68 1012.94 1012.15
1025.26 1025.17 1025.31 1025.19 1025.41 1025.82 1025.82 1025.84 1026.03 1026.14 1026.29 1026.21 1025.90 1025.60 1025.32 1025.15 1024.94 1024.70 1024.61 1024.29 1024.07 1023.76 1023.43 1022.80 1022.26 1021.61 1020.78 1019.92 1019.39 1019.57 1019.35 1018.27 1017.41 1016.27 1015.78 1015.57 1014.25 1012.72
1025.12 1025.48 1025.58 1025.68 1025.86 1026.34 1026.58 1026.55 1026.72 1026.60 1026.64 1026.65 1026.32 1026.25 1026.13 1026.03 1025.72 1025.72 1025.23 1024.96 1024.84 1024.31 1023.70 1023.39 1023.02 1022.54 1022.32 1021.63 1020.24 1018.91 1019.78 1018.75 1018.15 1017.26 1016.20 1015.63 1014.79 1013.37
1025.26 1025.49 1026.15 1026.31 1026.48 1026.79 1027.05 1027.14 1027.04 1027.06 1027.06 1027.01 1026.97 1026.98 1026.92 1026.96 1026.66 1026.12 1025.77 1025.80 1025.33 1024.78 1024.11 1023.57 1023.31 1022.96 1022.06 1021.38 1020.34 1019.21 1018.58 1018.62 1018.44 1017.67 1017.00 1015.86 1014.13 1012.52
1025.61 1026.02 1026.77 1027.00 1027.06 1027.11 1027.05 1027.36 1027.44 1027.27 1027.40 1027.42 1027.48 1027.56 1027.47 1027.55 1027.33 1026.95 1026.73 1026.27 1025.71 1025.34 1024.79 1024.22 1023.52 1022.96 1022.52 1021.84 1020.72 1019.58 1018.40 1017.48 1017.38 1016.62 1016.09 1015.84 1015.10 1013.54
1026.26 1026.89 1027.13 1027.05 1026.94 1027.21 1027.63 1027.80 1027.64 1027.52 1027.67 1027.82 1028.06 1028.27 1028.28 1028.15 1027.93 1027.47 1027.06 1026.55 1026.02 1025.42 1024.90 1024.14 1023.72 1023.42 1022.88 1022.24 1021.35 1020.06 1019.07 1018.04 1016.70 1015.79 1014.88 1014.44 1013.70 1012.73
Wind_Speed
5 3 4 4 4 6 2 2 3 4 2 8 7 1 4 4 3 3 4 6 11 13 12 11 8 11 10 9 9 9 6 5 5 7 8 9 10 11
4 6 2 4 5 5 5 7 4 3 2 2 4 3 3 4 1 4 5 12 13 9 7 11 9 12 10 9 7 9 5 3 2 4 6 7 9 10
4 4 2 2 3 4 5 4 3 3 3 5 3 6 7 7 7 5 5 7 4 6 11 13 10 13 12 8 5 7 5 2 3 2 4 6 7 9
3 3 3 3 1 3 3 6 4 5 3 5 4 5 5 6 7 5 5 7 6 7 12 14 8 15 15 9 7 5 7 2 4 4 3 6 7 7
5 4 4 4 2 3 4 4 5 4 4 2 5 4 5 4 6 4 4 4 6 12 11 7 10 13 15 8 8 5 6 6 5 6 4 4 6 8
6 4 2 3 2 1 3 4 4 4 5 5 2 6 3 5 3 4 7 6 8 10 11 12 15 14 19 4 9 10 9 6 5 8 5 3 1 4
5 4 3 9 6 6 3 5 5 4 4 5 7 7 6 8 8 7 8 8 7 6 7 11 9 11 7 5 7 8 7 8 8 7 10 7 5 3
4 4 10 12 10 8 7 5 4 4 5 4 5 6 7 7 6 5 4 7 7 4 8 10 9 9 5 3 2 8 8 8 9 8 7 7 7 5
7 7 8 8 10 8 9 9 7 8 8 4 5 6 6 6 5 7 8 7 7 9 9 9 6 8 8 4 5 8 5 10 9 7 7 7 7 7
10 8 11 9 9 8 7 7 7 7 4 1 3 5 6 6 4 6 7 7 6 6 6 4 5 7 8 9 6 2 9 9 10 8 8 9 8 7
8 10 10 8 11 15 7 7 7 7 10 9 9 11 13 9 7 2 4 5 5 6 7 7 7 8 6 6 8 12 8 11 9 11 10 8 8 5
7 8 12 8 10 11 7 7 7 7 10 12 12 6 6 6 9 5 4 6 6 5 7 7 6 7 5 3 8 6 6 10 8 11 11 5 6 4
5 6 5 10 10 11 7 4 4 6 10 8 7 3 5 6 5 6 6 4 4 3 9 4 5 6 5 8 6 7 11 11 12 10 2 4 9 6
4 3 5 12 11 10 11 11 12 10 4 7 8 8 8 9 8 7 6 6 5 6 8 7 3 4 4 6 8 7 8 10 10 9 4 3 4 9
4 5 7 10 9 7 7 13 9 8 9 8 7 7 5 5 6 9 9 9 8 8 9 7 11 12 9 8 9 10 11 6 7 9 9 9 7 5
7 5 5 7 5 5 9 10 8 10 9 8 8 8 8 9 8 8 8 9 8 6 8 12 12 11 9 9 9 10 9 9 9 9 12 9 10 10
7 2 4 4 4 4 5 7 7 8 8 7 8 9 9 9 9 8 7 8 8 9 9 9 12 11 9 8 10 8 9 10 11 12 13 12 11 10
0 6 4 4 5 5 6 6 6 8 6 6 5 6 6 7 8 8 8 10 10 9 10 10 11 12 10 8 9 11 10 11 13 12 10 11 13 10
1 5 3 4 4 4 4 5 5 4 6 6 6 7 7 8 8 7 8 8 9 9 10 10 10 11 12 13 8 7 13 14 13 12 10 12 14 13
5 5 4 4 5 6 6 6 5 6 5 5 5 7 7 7 8 8 9 10 10 10 10 9 9 9 9 12 16 15 8 12 12 15 13 14 15 22
4 5 4 4 5 5 4 4 4 5 5 5 7 7 8 8 9 9 9 12 12 9 10 10 9 18 10 10 11 14 11 10 11 13 15 15 18 18
4 5 4 3 4 3 4 4 4 4 5 6 6 7 7 7 8 9 8 9 9 10 10 10 11 11 11 12 15 18 14 14 14 18 19 16 13 16
4 4 3 2 3 5 5 4 5 5 6 6 6 7 7 7 8 8 9 9 10 10 11 11 10 9 10 12 17 15 21 19 15 16 15 17 21 25
Wind_Direction
312 290 311 312 4 334 336 319 334 358 139 224 244 55 12 17 45 322 318 293 276 284 272 263 274 281 291 304 323 339 3 3 5 26 27 19 23 16
304 8 291 342 349 324 352 346 335 318 344 332 359 348 9 327 294 329 295 291 280 279 257 251 257 269 275 288 320 321 9 41 50 18 35 20 20 19
243 247 260 286 290 324 344 323 337 23 7 321 347 325 325 294 277 275 277 295 301 195 236 247 245 268 270 264 285 292 324 88 134 62 20 39 19 16
289 324 282 283 281 282 340 348 316 333 13 316 319 294 284 286 259 251 277 293 303 212 246 258 244 264 270 249 253 268 299 337 151 131 22 24 25 16
232 257 291 327 16 354 321 331 338 0 332 284 295 309 290 327 32 324 321 316 342 354 324 345 253 264 273 262 229 237 271 276 175 150 115 7 16 7
230 184 222 264 198 215 334 341 12 349 313 320 328 273 302 357 1 343 345 1 345 353 334 339 328 311 297 210 188 200 226 251 255 148 144 137 1 1
278 182 34 65 28 11 347 357 349 323 334 321 330 334 352 356 355 353 346 336 341 322 333 322 326 316 322 191 180 211 211 215 220 191 168 190 188 194
320 353 87 36 16 31 9 1 295 305 302 308 314 317 328 345 349 339 320 333 324 305 328 312 317 319 350 43 257 233 222 225 218 197 210 192 200 222
43 23 66 60 29 1 347 314 270 243 240 297 293 306 312 317 318 319 319 312 312 304 318 301 311 336 358 6 306 289 273 251 236 221 230 227 224 218
35 58 66 48 23 9 322 359 358 349 37 111 292 307 290 301 312 318 308 320 314 321 353 342 339 345 339 341 23 290 271 272 267 258 235 233 231 243
59 43 59 49 10 0 358 19 1 11 347 337 308 298 288 307 280 311 344 340 334 335 25 350 340 335 326 312 353 340 280 278 282 266 262 233 220 234
103 88 66 54 19 12 9 7 355 343 334 322 316 316 100 87 91 31 11 352 344 339 14 350 334 342 307 340 331 323 324 333 312 297 283 267 200 252
47 67 45 27 11 355 352 343 309 304 306 297 291 40 31 32 33 10 349 332 1 325 306 343 315 320 333 328 337 345 350 344 330 319 353 214 205 216
49 26 4 345 347 336 325 329 323 320 347 17 25 18 12 8 358 340 343 360 349 320 307 317 298 334 321 326 328 332 331 323 309 309 341 86 211 216
20 330 341 311 314 328 294 326 6 22 13 18 16 3 348 339 354 8 359 2 347 327 1 4 24 358 349 339 332 333 324 307 306 333 6 350 338 325
1 358 355 354 19 16 26 29 27 29 29 15 1 2 357 6 1 10 354 342 336 347 350 12 23 3 339 330 321 315 316 320 338 2 347 336 333 324
332 257 50 42 50 48 40 29 41 30 16 7 11 5 3 355 9 356 348 352 348 343 343 350 357 341 322 303 311 330 355 339 344 338 333 319 314 304
236 69 64 46 33 23 30 27 30 30 9 25 14 1 359 353 355 357 356 354 343 349 346 344 338 330 329 325 27 347 343 334 326 322 316 309 305 307
161 103 66 79 77 47 35 29 37 26 28 3 357 354 10 3 350 352 355 349 342 340 335 333 337 341 338 325 319 55 332 323 311 314 330 323 306 316
83 50 51 71 68 47 30 29 7 22 8 1 1 7 5 357 358 351 349 348 342 335 328 335 331 338 327 313 306 312 291 301 331 320 322 316 297 293
71 93 55 50 53 47 42 32 12 8 20 5 13 6 6 359 348 348 345 339 333 329 325 328 333 327 306 296 295 303 308 290 284 299 304 304 312 312
62 78 66 54 67 56 37 6 359 20 22 15 11 0 5 350 343 336 331 327 326 324 317 318 318 328 327 316 307 308 308 315 306 282 269 270 296 294
67 54 73 58 52 51 27 359 12 14 22 18 10 359 350 340 332 329 324 322 320 321 316 318 317 318 311 309 306 307 309 312 317 312 301 288 273 264